Simultaneous Nadir Overpasses (SNOs) Predictions

Prediction of SNOs between LANDSAT-8 and NPP Satellite Orbit:

Table of predicted SNOs for the next 14.0 days since TLE Epoch: 9/18/2021
Index Date (LANDSAT-8) Time (LANDSAT-8) Lat,Lon (LANDSAT-8) SZA (LANDSAT-8 ) Date (NPP) Time (NPP) Lat,Lon (NPP) SZA (NPP ) Distance(km) Time Diff (sec)
1 09/19/2021 14:42:13 70.07, -44.06 68.73 09/19/2021 14:41:39 70.07, -44.04 68.74 0.85 34
2 09/19/2021 15:31:43 -69.95, 123.41 111.37 09/19/2021 15:32:21 -69.97, 123.42 111.35 2.30 38
3 09/22/2021 06:09:08 -70.51, -95.17 109.80 09/22/2021 06:07:57 -70.54, -96.31 109.76 42.36 71
4 09/22/2021 06:58:42 70.03, 71.77 69.73 09/22/2021 06:58:33 70.01, 71.82 69.71 3.17 9
5 09/22/2021 07:48:12 -69.92,-120.75 110.37 09/22/2021 07:49:15 -69.91,-120.71 110.38 1.81 63
6 09/24/2021 22:25:45 -70.09, 20.10 109.18 09/24/2021 22:24:45 -70.11, 20.13 109.16 2.15 60
7 09/24/2021 23:15:12 69.99,-172.41 70.73 09/24/2021 23:15:29 70.00,-172.40 70.75 1.85 17
8 09/25/2021 00:04:52 -69.33, -5.67 109.91 09/25/2021 00:06:00 -69.32, -4.08 109.93 62.61 68
9 09/27/2021 14:42:15 -70.05, 135.92 108.18 09/27/2021 14:41:40 -70.05, 135.99 108.18 2.74 35
10 09/27/2021 15:31:42 69.94, -56.59 71.73 09/27/2021 15:32:24 69.95, -56.55 71.74 1.91 42
11 09/30/2021 06:09:11 70.33, 84.56 73.12 09/30/2021 06:07:59 70.42, 83.87 73.23 27.91 72
12 09/30/2021 06:58:44 -70.06,-108.19 107.14 09/30/2021 06:58:36 -70.05,-108.23 107.14 2.02 8
13 09/30/2021 07:48:11 69.95, 59.30 72.77 09/30/2021 07:49:20 69.95, 59.22 72.78 2.82 69



Historial Predications of SNOs between LANDSAT-8 and NPP
